This is the latest recevied weather packets stored in our database for station/object OK1PNK-5. If no packets are shown the sender has not sent any weather packets the latest 1 day(s).
| Time | Temp. | Humidity | Pressure | Rain* | Wind** | Luminosity | Snow |
|---|---|---|---|---|---|---|---|
| 1777988543 | 26.67° C | 28% | 963.7 hPa | 0 mm | 0.89 m/s, 225° | - | - |
| 1777987944 | 26.67° C | 30% | 963.7 hPa | 0 mm | 1.34 m/s, 135° | - | - |
| 1777987343 | 27.22° C | 30% | 963.8 hPa | 0 mm | 0.89 m/s, 142° | - | - |
| 1777986743 | 26.67° C | 30% | 963.9 hPa | 0 mm | 0.89 m/s, 230° | - | - |
| 1777986143 | 26.67° C | 30% | 964 hPa | 0 mm | 0.89 m/s, 251° | - | - |
| 1777985543 | 26.67° C | 30% | 964.1 hPa | 0 mm | 0.89 m/s, 325° | - | - |
| 1777984943 | 26.67° C | 30% | 964.2 hPa | 0 mm | 0.89 m/s, 292° | - | - |
| 1777984343 | 26.67° C | 30% | 964.3 hPa | 0 mm | 1.79 m/s, 138° | - | - |
| 1777983743 | 26.67° C | 30% | 964.4 hPa | 0 mm | 0.89 m/s, 78° | - | - |
| 1777983143 | 26.67° C | 31% | 964.4 hPa | 0 mm | 0.89 m/s, 360° | - | - |
| 1777982543 | 26.67° C | 31% | 964.4 hPa | 0 mm | 0.89 m/s, 336° | - | - |
| 1777981943 | 26.67° C | 34% | 964.5 hPa | 0 mm | 0.89 m/s, 315° | - | - |
| 1777981343 | 26.11° C | 33% | 964.6 hPa | 0 mm | 0.89 m/s, 110° | - | - |
| 1777980743 | 25.56° C | 34% | 964.7 hPa | 0 mm | 0.89 m/s, 56° | - | - |
| 1777980143 | 25.56° C | 35% | 964.9 hPa | 0 mm | 0.89 m/s, 285° | - | - |
| 1777979543 | 25.56° C | 36% | 964.9 hPa | 0 mm | 0.89 m/s, 345° | - | - |
| 1777978943 | 25° C | 37% | 965 hPa | 0 mm | 0.45 m/s, 129° | - | - |
| 1777978343 | 24.44° C | 38% | 965.2 hPa | 0 mm | 0.89 m/s, 125° | - | - |
| 1777977743 | 24.44° C | 38% | 965.2 hPa | 0 mm | 0.89 m/s, 125° | - | - |
| 1777977143 | 24.44° C | 40% | 965.6 hPa | 0 mm | 0.89 m/s, 119° | - | - |
| 1777976543 | 24.44° C | 43% | 965.6 hPa | 0 mm | 0.89 m/s, 129° | - | - |
| 1777975943 | 23.89° C | 44% | 965.6 hPa | 0 mm | 1.79 m/s, 131° | - | - |
| 1777975343 | 23.89° C | 44% | 965.6 hPa | 0 mm | 1.79 m/s, 131° | - | - |
| 1777974743 | 23.33° C | 45% | 965.8 hPa | 0 mm | 0.89 m/s, 107° | - | - |
| 1777974143 | 22.78° C | 47% | 965.9 hPa | 0 mm | 1.34 m/s, 104° | - | - |
* Rain latest hour (hover to see other rain measurements)
** Current wind speed in m/s (hover to see current wind gust speed)